This demonstration page uses our WeatherBlox Daily Observations layout. Learn more.

Left ArrowRight Arrow

Hourly Observations for November 5, 2016

Temp ( °F °C ) Dew Point ( °F °C ) Humidity (%) Winds ( mph kmh ) Pressure ( in mb ) Visibility ( mi km ) Precip ( " mm )
12:10 am 00:10 Cloudy 63 17 55 13 77 77 E 10 17 30.18 1022 10 16 0.00 0.00
12:53 am 00:53 Cloudy 62 16.7 56 13.3 80 80 E 13 20 30.19 1022 10 16 0.00 0.00
1:19 am 01:19 Cloudy 62 16.7 56 13.3 80 80 E 13 20 30.18 1022 10 16 0.00 0.00
1:53 am 01:53 Cloudy 61 16.1 56 13.3 84 84 ESE 10 17 30.18 1022 10 16 0.00 0.00
2:03 am 02:03 Cloudy 61 16 55 13 83 83 ESE 14 22 30.18 1022 10 16 0.00 0.00
2:53 am 02:53 Cloudy 62 16.7 56 13.3 80 80 ESE 12 19 30.17 1022 10 16 0.00 0.00
3:00 am 03:00 Cloudy 63 17 55 13 77 77 ESE 12 19 30.18 1022 10 16 0.00 0.00
3:53 am 03:53 Cloudy 61 16.1 56 13.3 84 84 ESE 14 22 30.16 1021 10 16 0.00 0.00
4:26 am 04:26 Cloudy 61 16 57 14 88 88 ESE 15 24 30.15 1021 10 16 0.00 0.00
4:42 am 04:42 Cloudy 61 16 57 14 88 88 ESE 15 24 30.15 1021 10 16 0.00 0.00
4:49 am 04:49 Cloudy 61 16 57 14 88 88 ESE 16 26 30.15 1021 10 16 0.00 0.00
4:53 am 04:53 Cloudy 61 16.1 57 13.9 87 87 ESE 13 20 30.15 1021 10 16 0.00 0.00
5:23 am 05:23 Cloudy 61 16.1 58 14.4 90 90 E 14 22 30.15 1021 10 16 0.00 0.00
5:53 am 05:53 Cloudy 61 16.1 58 14.4 90 90 ESE 16 26 30.14 1021 9 14 0.00 0.00
6:53 am 06:53 Cloudy 61 16.1 58 14.4 90 90 E 15 24 30.13 1020 9 14 0.00 0.00
7:53 am 07:53 Cloudy 61 16.1 58 14.4 90 90 ESE 16 26 30.14 1021 9 14 0.00 0.00
8:53 am 08:53 Cloudy 61 16.1 58 14.4 90 90 ESE 14 22 30.14 1021 9 14 0.00 0.00
9:53 am 09:53 Cloudy 62 16.7 58 14.4 86 86 ESE 16 26 30.14 1021 10 16 0.00 0.00
10:53 am 10:53 Cloudy 62 16.7 58 14.4 86 86 ESE 16 26 30.14 1021 10 16 0.00 0.00
11:53 am 11:53 Cloudy 63 17.2 59 15 87 87 SE 17 28 30.14 1021 10 16 0.00 0.00
12:53 pm 12:53 Cloudy 64 17.8 59 15 84 84 ESE 17 28 30.12 1020 10 16 0.00 0.00
1:15 pm 13:15 Cloudy 65 18.3 59 15 81 81 ESE 16 26 30.09 1019 10 16 0.00 0.00
1:53 pm 13:53 Cloudy 65 18.3 59 15 81 81 SE 18 30 30.08 1019 10 16 0.00 0.00
2:29 pm 14:29 Mostly Cloudy 65 18.3 59 15 81 81 SE 14 22 30.06 1018 10 16 0.00 0.00
2:53 pm 14:53 Cloudy 63 17.2 60 15.6 90 90 ESE 13 20 30.06 1018 10 16 0.00 0.00
3:11 pm 15:11 Cloudy with Mist and Fog 63 17.2 60 15.6 90 90 ESE 12 19 30.09 1019 2 3 0.00 0.00
3:20 pm 15:20 undefined 63 17 61 16 94 94 undefined N/A 30.09 1019 N/A 0.00 0.00
3:53 pm 15:53 undefined N/A N/A N/A undefined N/A N/A N/A 0.00 0.00
4:53 pm 16:53 Cloudy 63 17.2 61 16.1 93 93 SE 24 39 30.00 1016 10 16 0.00 0.00
5:33 pm 17:33 Cloudy 63 17.2 61 16.1 93 93 SE 17 28 30.00 1016 10 16 0.00 0.00
5:49 pm 17:49 Cloudy 64 18 63 17 94 94 ESE 15 24 30.00 1016 10 16 0.00 0.00
5:53 pm 17:53 Cloudy 64 17.8 62 16.7 93 93 SE 16 26 30.01 1016 9 14 0.00 0.00
6:14 pm 18:14 Cloudy 64 18 61 16 88 88 ESE 17 28 30.00 1016 9 14 0.00 0.00
6:53 pm 18:53 Cloudy 64 17.8 61 16.1 90 90 ESE 16 26 30.01 1016 10 16 0.00 0.00
7:15 pm 19:15 Cloudy 63 17.2 61 16.1 93 93 ESE 14 22 30.00 1016 10 16 0.00 0.00
7:48 pm 19:48 Cloudy with Mist and Fog 63 17 61 16 94 94 ESE 14 22 30.00 1016 6 10 0.00 0.00
7:53 pm 19:53 Cloudy 63 17.2 61 16.1 93 93 E 15 24 30.02 1017 7 11 0.00 0.00
8:11 pm 20:11 Cloudy 63 17.2 61 16.1 93 93 E 13 20 30.06 1018 10 16 0.00 0.00
8:53 pm 20:53 Cloudy 63 17.2 61 16.1 93 93 ESE 13 20 30.02 1017 10 16 0.00 0.00
9:17 pm 21:17 Cloudy 63 17.2 61 16.1 93 93 ESE 14 22 30.00 1016 10 16 0.00 0.00
9:53 pm 21:53 Cloudy 64 17.8 61 16.1 90 90 ESE 16 26 30.03 1017 10 16 0.00 0.00
10:11 pm 22:11 Cloudy 64 17.8 61 16.1 90 90 ESE 13 20 30.03 1017 10 16 0.00 0.00
10:53 pm 22:53 Cloudy 63 17.2 61 16.1 93 93 SE 14 22 30.04 1017 10 16 0.00 0.00
11:12 pm 23:12 Cloudy 63 17 61 16 94 94 ESE 13 20 30.06 1018 10 16 0.00 0.00
11:53 pm 23:53 Cloudy 63 17.2 61 16.1 93 93 ESE 16 26 30.04 1017 10 16 0.00 0.00

Powered by AerisWeather